Back to catalog

DELTA 1 DEB

AliveLEO
NORAD 19316·DEBRIS·🇺🇸 United States

Launched Jul 29, 1976 from Vandenberg Space Force Base

Loading…

Next Passes (next 24 hours)

TLE

FreshSource: Space-Track

Epoch: Sep 14, 2026, 14:35 UTC

1 19316U 76077FK  26257.60790580  .00000386  00000-0  47493-2 0  9990
2 19316 102.1775  23.5154 0209248 263.4247 164.7846 12.03768918822786

Track DELTA 1 DEB in real time with AllMySat

Download on the App Store